Location: Vancouver
(49.2500°N, 123.1330°W)
Time: 13:54:03
(UTC-07:00)

Transit 2A Rocket - Visible Passes

Search period start: 22 October 2017 00:00
Search period end: 01 November 2017 00:00
Orbit: 584 x 919 km, 66.7° (Epoch: 21 October)

Date Brightness Start Highest point End Pass type
(mag) Time Alt. Az. Time Alt. Az. Time Alt. Az.
22 Oct 7.4 18:46:50 10° WNW 18:50:42 18° NNW 18:54:40 10° NNE visible
22 Oct 7.3 20:32:17 10° NNW 20:35:50 16° N 20:37:35 14° NNE visible
22 Oct 7.4 22:15:13 10° NNW 22:17:29 20° N 22:17:29 20° N visible
23 Oct 7.4 19:49:22 10° NNW 19:52:42 15° N 19:56:03 10° NE visible
23 Oct 7.2 21:32:48 10° NNW 21:36:05 21° N 21:36:05 21° N visible
23 Oct 8.0 23:15:17 10° NNW 23:15:59 14° NNW 23:15:59 14° NNW visible
24 Oct 7.4 19:06:12 10° NW 19:09:34 15° N 19:12:58 10° NNE visible
24 Oct 7.1 20:50:21 10° NNW 20:54:39 19° NNE 20:54:42 19° NNE visible
24 Oct 7.6 22:32:53 10° NNW 22:34:36 19° NNW 22:34:36 19° NNW visible
25 Oct 7.2 20:07:46 10° NNW 20:11:36 17° NNE 20:13:19 15° NNE visible
25 Oct 7.2 21:50:30 10° NNW 21:53:13 24° N 21:53:13 24° N visible
25 Oct 8.2 23:33:08 10° NW 23:33:08 10° NW 23:33:08 10° NW visible
26 Oct 7.3 19:25:01 10° NNW 19:28:29 15° N 19:31:58 10° NE visible
26 Oct 6.9 21:08:06 10° NNW 21:11:52 25° N 21:11:52 25° N visible
26 Oct 7.8 22:50:37 10° NW 22:51:46 16° NW 22:51:46 16° NW visible
27 Oct 7.3 18:42:02 10° NNW 18:45:21 15° N 18:48:44 10° NNE visible
27 Oct 6.8 20:25:41 10° NNW 20:30:21 22° NNE 20:30:32 22° NNE visible
27 Oct 7.3 22:08:10 10° NNW 22:10:27 23° NNW 22:10:27 23° NNW visible
28 Oct 7.0 19:43:12 10° NNW 19:47:21 18° NNE 19:49:14 16° NE visible
28 Oct 6.8 21:25:47 10° NNW 21:29:08 29° N 21:29:08 29° N visible
28 Oct 8.1 23:08:34 10° NW 23:09:03 12° NW 23:09:03 12° NW visible
29 Oct 7.2 19:00:34 10° NNW 19:04:16 16° NNE 19:07:57 10° NE visible
29 Oct 6.5 20:43:24 10° NNW 20:47:51 30° NNE 20:47:51 30° NNE visible
29 Oct 7.6 22:25:59 10° NW 22:27:46 20° NW 22:27:46 20° NW visible
30 Oct 6.6 20:01:00 10° NNW 20:06:01 25° NNE 20:06:36 25° NE visible
30 Oct 6.9 21:43:30 10° NW 21:46:31 30° NNW 21:46:31 30° NNW visible
31 Oct 6.8 19:18:33 10° NNW 19:23:04 21° NNE 19:25:23 17° NE visible
31 Oct 6.2 21:01:05 10° NNW 21:05:18 40° N 21:05:18 40° N visible
31 Oct 7.9 22:44:04 10° NW 22:45:13 15° NW 22:45:13 15° NW visible
